FW6296 Weather Reports


Display with metric or nautical units.
time (UTC)temp
F
wind
direction
speed
MPH
gust
MPH
rain 1hr
in
rain 24hr
in
rain mn
in
humidity
%
barometer
mb
20260901175556 91 287 3.0 8.0 0.00 0.65 0.20 63 1015.3
20260901174516 91 274 3.0 7.0 0.00 0.65 0.20 64 1015.4
20260901173515 90 269 2.0 6.0 0.00 0.65 0.20 65 1015.5
20260901172517 89 285 2.0 6.0 0.00 0.65 0.20 66 1015.5
20260901171536 89 287 1.0 5.0 0.00 0.65 0.20 67 1015.6
20260901170537 88 266 0.0 3.0 0.00 0.65 0.20 68 1015.6
20260901165537 88 272 1.0 4.0 0.00 0.65 0.20 69 1015.7
20260901164517 88 273 2.0 4.0 0.00 0.65 0.20 68 1015.7
20260901163517 88 262 1.0 4.0 0.00 0.65 0.20 67 1015.8
20260901162517 87 277 3.0 5.0 0.00 0.65 0.20 69 1015.9
20260901161537 86 278 2.0 6.0 0.00 0.65 0.20 71 1015.9
20260901160518 85 278 2.0 7.0 0.00 0.65 0.20 71 1015.9
20260901155518 86 284 3.0 6.0 0.00 0.65 0.20 71 1015.8
20260901154517 85 276 1.0 4.0 0.00 0.65 0.20 71 1015.8
20260901153518 84 276 1.0 4.0 0.00 0.65 0.20 73 1015.7
20260901152518 84 285 2.0 4.0 0.00 0.65 0.20 72 1015.7
20260901151515 84 268 2.0 5.0 0.00 0.65 0.20 72 1015.6
20260901150515 84 265 2.0 5.0 0.00 0.65 0.20 72 1015.6
20260901145516 84 283 1.0 4.0 0.00 0.70 0.20 72 1015.6
20260901144536 82 279 1.0 5.0 0.00 0.70 0.20 75 1015.5
20260901143516 81 268 1.0 4.0 0.00 0.70 0.20 77 1015.6
20260901142516 81 284 2.0 6.0 0.00 0.70 0.20 77 1015.6
20260901141516 80 298 2.0 6.0 0.00 0.70 0.20 78 1015.6
20260901140517 80 13 0.0 5.0 0.00 0.70 0.20 79 1015.5
20260901135517 78 301 0.0 3.0 0.00 0.78 0.20 81 1015.6
20260901134517 78 265 1.0 7.0 0.00 0.78 0.20 82 1015.7
20260901133517 78 257 1.0 3.0 0.00 0.78 0.20 82 1015.8
20260901132517 76 178 0.0 2.0 0.00 0.78 0.20 84 1015.8
20260901131517 76 233 0.0 4.0 0.00 0.78 0.20 86 1015.9
20260901130517 75 220 0.0 2.0 0.00 0.78 0.20 87 1016.0
20260901125518 75 236 0.0 3.0 0.00 0.78 0.20 88 1015.9
20260901124518 74 197 0.0 1.0 0.00 0.78 0.20 89 1015.8
20260901123518 74 135 0.0 2.0 0.00 0.78 0.20 90 1015.7
20260901122518 74 0.0 0.0 0.03 0.78 0.20 91 1015.6
20260901121517 74 0.0 0.0 0.04 0.78 0.20 91 1015.5
20260901120515 74 0.0 0.0 0.04 0.78 0.20 91 1015.4
20260901115516 73 0.0 0.0 0.06 0.78 0.20 91 1015.3
20260901114516 73 236 0.0 2.0 0.08 0.78 0.20 91 1015.1
20260901113516 74 194 0.0 2.0 0.09 0.78 0.20 91 1015.1
20260901112518 74 0.0 0.0 0.10 0.75 0.17 91 1015.1
20260901111516 74 0.0 0.0 0.16 0.75 0.17 90 1014.9
20260901110517 74 0.0 0.0 0.16 0.75 0.17 90 1014.8
20260901105517 74 0.0 0.0 0.14 0.73 0.15 89 1014.8
20260901104537 74 98 0.0 2.0 0.12 0.70 0.12 89 1014.8
20260901103517 75 94 0.0 2.0 0.11 0.69 0.11 88 1014.7
20260901102517 75 0.0 0.0 0.07 0.65 0.07 86 1014.7
20260901101517 75 0.0 0.0 0.00 0.58 0.00 85 1014.9
20260901100538 75 235 0.0 2.0 0.00 0.58 0.00 84 1014.9
20260901095518 75 240 0.0 2.0 0.00 0.58 0.00 83 1014.8
20260901094518 75 278 0.0 3.0 0.00 0.58 0.00 83 1014.7
20260901093515 76 268 0.0 3.0 0.00 0.58 0.00 83 1014.6
20260901092518 76 267 0.0 3.0 0.00 0.58 0.00 83 1014.5
20260901091515 76 255 0.0 3.0 0.00 0.58 0.00 82 1014.4
20260901090536 76 245 1.0 3.0 0.00 0.58 0.00 81 1014.5
20260901085516 76 246 1.0 4.0 0.00 0.58 0.00 81 1014.5
20260901084516 76 252 1.0 5.0 0.00 0.58 0.00 81 1014.6
20260901083516 77 269 2.0 4.0 0.00 0.58 0.00 81 1014.6
20260901082517 77 269 1.0 4.0 0.00 0.58 0.00 80 1014.5
20260901081516 77 264 1.0 4.0 0.00 0.58 0.00 80 1014.5
20260901080517 77 265 1.0 5.0 0.00 0.58 0.00 80 1014.4
20260901075517 76 262 1.0 4.0 0.00 0.58 0.00 80 1014.3
20260901074517 77 252 1.0 4.0 0.00 0.58 0.00 80 1014.4
20260901073517 77 287 1.0 3.0 0.00 0.58 0.00 79 1014.4
20260901072517 77 269 1.0 3.0 0.00 0.58 0.00 79 1014.4
20260901071518 76 259 0.0 3.0 0.00 0.58 0.00 80 1014.4
20260901070518 76 320 0.0 3.0 0.00 0.58 0.00 82 1014.3
20260901065518 76 187 0.0 2.0 0.00 0.58 0.00 82 1014.3
20260901064516 76 221 0.0 2.0 0.00 0.58 0.00 82 1014.3
20260901063516 76 243 0.0 2.0 0.00 0.58 0.00 82 1014.2
20260901062517 77 247 0.0 1.0 0.00 0.58 0.00 82 1014.2
20260901061557 77 231 1.0 3.0 0.00 0.58 0.00 81 1014.3
20260901060517 77 239 0.0 2.0 0.00 0.58 0.00 81 1014.3
20260901055537 77 243 0.0 3.0 0.00 0.58 0.00 80 1014.3
20260901054517 78 276 0.0 3.0 0.00 0.58 0.00 80 1014.3
20260901053537 78 285 0.0 3.0 0.00 0.58 0.00 80 1014.3
20260901052518 78 236 0.0 3.0 0.00 0.58 0.00 79 1014.3
20260901051518 78 225 0.0 3.0 0.00 0.58 0.00 79 1014.3
20260901050536 78 247 0.0 2.0 0.00 0.58 0.00 79 1014.4
20260901045516 78 222 0.0 3.0 0.00 0.58 0.58 80 1014.4
20260901044515 78 230 0.0 3.0 0.00 0.58 0.58 80 1014.4
20260901043516 78 246 0.0 3.0 0.00 0.58 0.58 80 1014.4
20260901042515 78 221 1.0 3.0 0.00 0.58 0.58 80 1014.4
20260901041516 79 234 1.0 4.0 0.00 0.58 0.58 80 1014.4
20260901040516 79 213 1.0 3.0 0.00 0.58 0.58 80 1014.3
20260901035516 79 212 1.0 3.0 0.00 0.58 0.58 80 1014.2
20260901034517 79 186 0.0 3.0 0.00 0.58 0.58 80 1014.2
20260901033517 79 117 1.0 4.0 0.00 0.58 0.58 79 1014.2
20260901032516 79 212 1.0 4.0 0.00 0.58 0.58 79 1014.2
20260901031517 79 99 1.0 4.0 0.00 0.58 0.58 79 1014.3
20260901030517 79 82 1.0 4.0 0.00 0.58 0.58 79 1014.4
20260901025517 80 70 0.0 3.0 0.00 0.58 0.58 78 1014.5
20260901024518 80 113 0.0 4.0 0.00 0.58 0.58 78 1014.5
20260901023518 80 72 1.0 5.0 0.00 0.58 0.58 78 1014.5
20260901022518 80 61 0.0 3.0 0.00 0.59 0.58 79 1014.5
20260901021518 80 83 1.0 3.0 0.00 0.59 0.58 79 1014.5
20260901020518 80 57 1.0 3.0 0.00 0.61 0.58 80 1014.5
20260901015515 80 67 1.0 4.0 0.00 0.61 0.58 80 1014.5
20260901014516 79 357 0.0 3.0 0.00 0.61 0.58 82 1014.3
20260901013516 79 65 0.0 4.0 0.00 0.61 0.58 83 1014.3
20260901012516 79 65 0.0 4.0 0.00 0.61 0.58 84 1014.2
20260901011516 80 59 1.0 4.0 0.00 0.61 0.58 84 1014.1
20260901010516 80 49 1.0 4.0 0.00 0.61 0.58 83 1014.0
20260901005516 80 67 1.0 3.0 0.15 0.61 0.58 83 1013.9
20260901004516 80 63 1.0 5.0 0.45 0.61 0.58 83 1013.7
20260901003517 80 65 1.0 5.0 0.45 0.61 0.58 84 1013.7
20260901002517 79 65 2.0 8.0 0.45 0.61 0.58 82 1013.6
20260901001517 79 320 3.0 7.0 0.45 0.61 0.58 86 1013.9
20260901000518 82 66 3.0 7.0 0.45 0.61 0.58 80 1014.3
20260831235518 87 312 4.0 8.0 0.30 0.46 0.43 70 1015.9
20260831234518 87 278 1.0 3.0 0.00 0.16 0.13 65 1014.7
20260831233518 88 246 0.0 2.0 0.00 0.16 0.13 64 1014.1
20260831232518 89 122 0.0 1.0 0.00 0.16 0.13 62 1014.1
20260831231518 89 73 0.0 3.0 0.00 0.18 0.13 61 1013.9
20260831230518 90 286 0.0 2.0 0.00 0.18 0.13 60 1013.9
20260831225555 90 270 0.0 3.0 0.00 0.18 0.13 59 1014.0
20260831224516 91 267 1.0 4.0 0.00 0.18 0.13 58 1014.0
20260831223516 93 263 1.0 5.0 0.00 0.18 0.13 55 1013.7
20260831222516 93 270 1.0 4.0 0.00 0.18 0.13 54 1013.5
20260831221516 94 263 1.0 5.0 0.00 0.18 0.13 54 1013.4
20260831220516 94 263 1.0 5.0 0.00 0.18 0.13 52 1013.4
20260831215516 94 268 2.0 5.0 0.00 0.18 0.13 51 1013.4
20260831214517 94 287 2.0 5.0 0.00 0.18 0.13 50 1013.5
20260831213517 93 278 3.0 7.0 0.00 0.18 0.13 51 1013.5
20260831212517 94 284 2.0 7.0 0.00 0.18 0.13 51 1013.6
20260831211517 94 282 2.0 6.0 0.00 0.18 0.13 51 1013.7
20260831210518 93 285 4.0 8.0 0.00 0.18 0.13 51 1013.6
20260831205517 93 270 2.0 6.0 0.00 0.18 0.13 52 1013.6
20260831204518 93 281 3.0 9.0 0.00 0.18 0.13 53 1013.6
20260831203518 93 274 3.0 8.0 0.00 0.18 0.13 51 1013.4
20260831202618 94 274 3.0 5.0 0.00 0.18 0.13 50 1013.3
20260831201518 93 278 2.0 7.0 0.00 0.18 0.13 50 1013.2
20260831200516 93 278 2.0 6.0 0.00 0.18 0.13 50 1013.4
20260831195536 93 279 2.0 8.0 0.00 0.18 0.13 49 1013.6
20260831194515 93 270 2.0 7.0 0.00 0.18 0.13 49 1013.6
20260831193516 92 268 3.0 8.0 0.00 0.18 0.13 49 1013.6
20260831192516 92 279 3.0 7.0 0.00 0.20 0.13 50 1013.7
20260831191517 92 271 1.0 5.0 0.00 0.20 0.13 51 1013.8
20260831190517 91 271 2.0 5.0 0.00 0.20 0.13 52 1013.9
20260831185517 91 268 2.0 6.0 0.00 0.20 0.13 52 1013.9
20260831184517 90 262 2.0 8.0 0.00 0.20 0.13 51 1013.9
20260831183517 90 275 2.0 6.0 0.00 0.20 0.13 53 1013.9
20260831182517 89 258 2.0 6.0 0.00 0.20 0.13 55 1014.0
20260831181518 88 236 1.0 5.0 0.00 0.20 0.13 57 1014.1
20260831180538 87 356 1.0 4.0 0.00 0.20 0.13 58 1014.2